Regional Weather Roundup
Issued by NWS Cleveland, OH

Home | Current Version | Previous Version | Graphics & Text | Print | Product List | Glossary On
Versions: 1 2 3 4 5 6 7 8 9 10 11 12 13 14 15 16 17 18 19 20 21 22 23 24 25 26 27 28 29 30 31 32 33 34 35 36 37 38 39 40 41 42 43 44 45 46 47 48 49 50
000
ASUS41 KCLE 200910
RWRCLE
OHIO REGIONAL WEATHER ROUNDUP
NATIONAL WEATHER SERVICE CLEVELAND, OH
500 AM EDT MON OCT 20 2014

NOTE: "FAIR" INDICATES FEW OR NO CLOUDS BELOW 12,000 FEET WITH NO
SIGNIFICANT WEATHER AND/OR OBSTRUCTIONS TO VISIBILITY.

OHZ001>008-015>018-024>027-034-035-043-044-201000-
   NORTHWEST OHIO

CITY           SKY/WX    TMP DP  RH WIND       PRES   REMARKS
DEFIANCE       CLOUDY    48  42  80 S8        29.93F
FINDLAY        MOCLDY    47  42  83 S8        29.95F
TOLEDO EXPRESS CLOUDY    47  40  76 SW7       29.93F
TOLEDO EXEC    MOCLDY    47  39  74 SW10      29.94F
LIMA           CLOUDY    49  41  74 S9        29.96F
$$

OHZ009>014-019>023-028>033-038-089-201000-
   NORTHEAST OHIO

CITY           SKY/WX    TMP DP  RH WIND       PRES   REMARKS
CLE-HOPKINS    CLOUDY    48  36  63 S9        29.99F
CLE-LAKEFRONT  CLOUDY    50  37  61 S9        29.96F
CUY CO. ARPT   NOT AVBL
LORAIN-ELYRIA  CLOUDY    47  38  71 S9        29.97F
ASHTABULA      MOCLDY    43  36  76 S9        29.99F
AKRON-CANTON   CLOUDY    46  36  68 S7        30.00F
WOOSTER        CLOUDY    46  37  71 S7        30.00F
MANSFIELD      CLOUDY    47  39  74 SW10      29.98F
YOUNGSTOWN     CLOUDY    44  36  73 S5        30.00F
$$

OHZ042-051>053-060>062-070>072-077>081-201000-
  SOUTHWEST OHIO

CITY           SKY/WX    TMP DP  RH WIND       PRES   REMARKS
CINC-COVINGTON CLOUDY    46  41  82 S6        30.02F
CINC-LUNKEN    CLOUDY    43  42  97 CALM      30.04F
HAMILTON       CLOUDY    43  42  97 CALM      30.03F
DAYTON         CLOUDY    48  41  76 S7        30.01F
WRIGHT-PAT AFB CLOUDY    46  42  84 S6        30.01F
DAYTON GENERAL CLOUDY    46  42  86 S6        30.01F
WILMINGTON     CLOUDY    45  40  82 SW3       30.01F
$$

OHZ036-037-039>041-045>050-054>059-063>069-073>076-082>088-201000-
  CENTRAL AND SOUTHEAST OHIO

CITY           SKY/WX    TMP DP  RH WIND       PRES   REMARKS
COLUMBUS       MOCLDY    44  38  79 CALM      30.02F
OSU AIRPORT    CLOUDY    46  39  76 S6        30.01F
BOLTON FIELD   MOCLDY    44  40  88 S6        30.03S
RICKENBACK AFB MOCLDY    42  39  89 S3        30.02F
NEWARK         CLOUDY    39  37  92 CALM      30.02F
MARION         LGT RAIN  46  39  76 S8        29.98F
LANCASTER      MOCLDY    43  39  86 SE3       30.03F
ZANESVILLE     CLOUDY    42  37  82 S3        30.03F
NEW PHILLY     MOCLDY    43  38  82 SE5       30.03F
$$


USA.gov is the U.S. government's official web portal to all federal, state and local government web resources and services.